EW2755 Weather Reports


time (UTC)temp
C
wind
direction
speed
KPH
gust
KPH
rain 1hr
cm
rain 24hr
cm
rain mn
cm
humidity
%
barometer
mb
20260504201557 29 65 0.0 6.4 0.00 0.00 0.00 26 1007.1
20260504200050 29 0 0.0 4.8 0.00 0.00 0.00 29 1007.3
20260504194551 28 0 0.0 4.8 0.00 0.00 0.00 31 1007.6
20260504193045 27 79 0.0 6.4 0.00 0.00 0.00 34 1007.7
20260504191551 26 0 0.0 4.8 0.00 0.00 0.00 37 1008.0
20260504190047 25 0 0.0 3.2 0.00 0.00 0.00 43 1008.2
20260504184555 25 0 1.6 9.7 0.00 0.00 0.00 44 1008.5
20260504183043 24 0 0.0 4.8 0.00 0.00 0.00 47 1008.7
20260504181548 25 0 0.0 6.4 0.00 0.00 0.00 38 1009.0
20260504180052 23 0 0.0 8.0 0.00 0.00 0.00 38 1009.1
20260504174545 24 0 0.0 9.7 0.00 0.00 0.00 39 1009.2
20260504173054 23 0 0.0 6.4 0.00 0.00 0.00 40 1009.2
20260504171543 22 0 0.0 4.8 0.00 0.00 0.00 41 1009.2
20260504081548 15 0 0.0 0.0 0.00 0.00 0.00 56 1008.7
20260504044544 22 0 0.0 11.3 0.00 0.00 0.00 39 1008.0
20260504043041 22 215 3.2 12.9 0.00 0.00 0.00 38 1008.0
20260504041549 22 0 1.6 6.4 0.00 0.00 0.00 40 1007.9
20260504040045 22 0 0.0 9.7 0.00 0.00 0.00 38 1007.8
20260504034546 23 231 0.0 11.3 0.00 0.00 0.00 37 1007.5
20260504033051 23 0 6.4 14.5 0.00 0.00 0.00 36 1007.5
20260504031543 23 0 4.8 14.5 0.00 0.00 0.00 37 1007.2
20260504030041 24 193 4.8 12.9 0.00 0.00 0.00 36 1007.1
20260504024556 25 184 1.6 11.3 0.00 0.00 0.00 36 1007.1
20260504023046 26 216 3.2 8.0 0.00 0.00 0.00 34 1007.0
20260504021550 27 217 1.6 8.0 0.00 0.00 0.00 34 1007.1
20260504020048 28 0 0.0 4.8 0.00 0.00 0.00 32 1007.1
20260504014542 28 0 0.0 3.2 0.00 0.00 0.00 27 1007.2
20260504013048 29 0 0.0 6.4 0.00 0.00 0.00 27 1007.4
20260504011544 30 0 0.0 1.6 0.00 0.00 0.00 26 1007.6
20260504010044 30 0 0.0 4.8 0.00 0.00 0.00 26 1007.6
20260504004558 30 0 0.0 3.2 0.00 0.00 0.00 25 1007.9
20260504003042 30 130 0.0 3.2 0.00 0.00 0.00 25 1007.9
20260504001543 30 0 0.0 4.8 0.00 0.00 0.00 24 1008.2
20260504000043 30 0 0.0 6.4 0.00 0.00 0.00 24 1008.4
20260503234546 30 0 0.0 6.4 0.00 0.00 0.00 24 1008.6
20260503233042 30 0 0.0 6.4 0.00 0.00 0.00 25 1008.8
20260503231549 30 0 0.0 1.6 0.00 0.00 0.00 24 1009.1
20260503230040 30 0 0.0 8.0 0.00 0.00 0.00 24 1009.3
20260503224542 30 0 0.0 3.2 0.00 0.00 0.00 24 1009.6
20260503223046 30 0 0.0 6.4 0.00 0.00 0.00 24 1009.9
20260503221551 30 0 0.0 6.4 0.00 0.00 0.00 23 1010.0
20260503220046 30 0 0.0 9.7 0.00 0.00 0.00 23 1010.3
20260503214541 30 172 0.0 8.0 0.00 0.00 0.00 23 1010.6
20260503213044 30 0 0.0 4.8 0.00 0.00 0.00 24 1010.7
20260503211546 30 0 0.0 12.9 0.00 0.00 0.00 23 1010.8
20260503210043 29 0 0.0 8.0 0.00 0.00 0.00 25 1011.0
20260503204541 29 28 0.0 8.0 0.00 0.00 0.00 26 1011.4
20260503203042 28 0 1.6 8.0 0.00 0.00 0.00 28 1011.7